Location: Holcomb Observatory and Planetarium
(39.8415°N, 86.1714°W)
Time: 00:00:07
(UTC-05:00)

ISS - Visible Passes

Search period start: 02 March 2015 00:00
Search period end: 12 March 2015 01:00
Orbit: 397 x 407 km, 51.6° (Epoch: 01 March)

Date Brightness Start Highest point End Pass type
(mag) Time Alt. Az. Time Alt. Az. Time Alt. Az.
08 Mar -0.5 07:20:08 10° S 07:22:12 16° SE 07:24:21 10° E visible
10 Mar -2.0 07:09:03 10° SSW 07:12:04 38° SE 07:15:07 10° ENE visible
11 Mar -1.0 06:17:50 16° SSE 06:18:59 19° SE 06:21:25 10° E visible
